Wind_Speed
43 48 52 55 57 62 66 70 71 71 70 67 63 59 55 52 51 49 47 45 43 41 39 36 33 32 31 31 32 33 34 36 36 36 36 35 34 32 31 29 27 25 24 24
45 50 54 56 61 65 68 71 71 71 67 64 58 53 51 50 49 47 45 43 41 40 39 37 35 33 33 33 34 35 37 38 38 38 37 36 34 32 31 30 28 26 24 24
48 52 57 59 63 66 70 71 72 70 68 62 54 50 49 48 46 44 42 41 40 40 39 38 37 37 36 37 38 39 40 40 40 39 39 37 35 33 31 30 29 27 25 25
50 54 58 61 64 67 70 71 70 67 62 55 51 48 48 46 44 41 41 40 40 40 40 40 40 40 41 41 42 43 44 43 43 42 40 38 36 34 32 31 30 29 27 26
52 55 59 62 65 68 71 70 69 64 56 49 46 45 45 44 42 41 41 41 42 42 43 43 44 44 45 46 46 47 47 46 45 43 42 40 38 35 33 32 31 30 30 29
53 57 60 63 66 69 71 68 66 59 52 48 45 43 42 42 42 42 43 44 45 46 46 47 48 48 49 49 50 50 50 49 48 46 44 42 39 36 34 33 32 32 32 32
55 58 60 64 67 69 68 68 64 55 49 45 44 43 44 44 45 45 46 47 48 50 51 51 52 52 53 53 53 53 53 52 50 48 46 44 42 39 36 35 34 33 33 33
56 59 61 65 66 67 67 65 57 50 45 43 43 44 45 46 47 48 49 50 52 53 54 55 55 55 55 54 54 53 52 51 50 48 47 45 44 42 40 38 37 36 35 35
56 59 62 64 66 67 66 59 51 45 43 43 43 45 46 48 50 51 53 54 55 56 56 56 56 55 53 52 51 50 49 48 47 46 45 44 43 42 42 42 41 39 38 38
57 60 63 65 66 65 61 54 47 43 42 43 45 47 49 51 53 54 55 56 57 57 56 54 52 50 49 48 48 48 47 46 46 45 44 43 42 41 41 42 43 42 42 42
57 60 62 64 65 63 57 50 44 42 42 44 47 49 52 54 55 56 57 58 57 54 51 48 46 46 47 47 47 47 47 46 45 44 43 41 40 39 38 39 40 42 43 44
57 60 61 63 65 61 54 47 43 42 44 46 49 52 55 56 57 58 58 55 51 47 45 44 45 45 46 46 47 47 47 47 46 44 42 40 38 37 36 35 34 36 38 41
57 60 62 64 64 59 52 47 43 43 45 49 52 55 56 57 58 57 54 48 44 42 42 43 44 45 46 47 49 49 49 49 48 46 44 41 39 36 34 33 32 31 32 34
58 60 62 64 62 56 50 46 44 45 47 51 54 56 57 58 56 52 46 42 40 40 41 42 44 46 48 49 50 51 51 51 50 48 46 43 40 37 34 32 30 30 29 29
58 60 62 63 60 55 50 47 45 47 49 53 55 57 57 56 51 45 40 38 38 39 41 43 45 47 49 51 53 53 53 52 51 49 47 45 42 39 36 34 32 30 29 28
58 60 62 62 59 54 49 46 46 48 51 54 56 57 55 51 45 39 36 35 37 39 41 44 46 49 51 53 54 55 54 53 53 51 49 46 44 41 38 36 34 32 31 30
57 59 61 60 56 51 47 46 46 49 52 55 56 55 50 45 39 35 34 35 37 40 43 45 48 51 53 55 56 56 55 53 52 51 50 48 45 42 40 37 35 34 33 32
57 59 60 59 55 50 46 46 47 49 52 54 54 50 44 38 33 31 33 35 38 42 44 47 50 52 55 57 58 58 56 55 55 55 53 51 47 44 41 38 36 34 32 31
56 58 59 57 53 49 46 46 47 50 52 53 50 45 38 31 29 30 32 34 38 41 44 47 50 53 56 58 59 59 59 59 59 58 55 53 49 45 42 38 35 32 29 27
56 58 58 55 51 47 45 45 47 50 51 50 46 39 32 28 28 30 32 35 38 41 44 47 50 53 56 58 60 61 61 60 60 59 58 55 52 48 43 39 34 28 24 21
55 57 57 53 49 45 44 45 47 49 49 46 40 33 27 26 27 29 32 35 38 41 44 47 50 53 56 59 61 61 60 60 60 60 60 59 57 52 47 42 35 28 22 16
55 56 55 51 46 43 43 44 47 48 47 42 35 28 25 25 26 29 32 35 37 40 43 46 49 53 56 58 60 60 58 58 59 60 61 62 61 59 55 48 41 33 26 19
54 54 52 47 43 41 41 44 46 46 43 37 30 24 23 24 26 29 32 34 37 39 42 45 48 52 54 56 58 58 58 57 57 58 60 62 62 63 61 58 52 45 37 30
52 52 48 43 39 39 40 43 44 44 39 33 26 21 21 23 26 29 31 34 37 38 40 43 47 50 52 54 56 57 57 56 55 56 58 60 61 61 62 61 60 57 52 47
51 49 44 39 37 37 40 42 43 40 35 28 22 19 20 22 26 28 31 33 35 36 38 40 44 47 49 52 54 56 57 57 56 55 55 57 59 59 59 59 59 58 57 55
48 45 40 36 35 36 39 40 40 37 32 25 19 17 19 22 25 28 30 33 34 35 36 37 40 44 47 49 52 54 56 57 57 55 55 55 56 56 57 57 56 56 55 54
45 41 37 33 33 35 37 39 37 34 28 22 17 16 18 21 24 27 29 31 33 33 34 35 37 40 43 46 49 51 54 55 57 57 56 56 56 55 55 54 54 53 53 52
Wind_Direction
332 333 334 333 332 331 330 330 329 328 327 327 324 323 324 326 327 327 327 327 328 329 329 329 327 325 323 321 320 319 319 318 316 315 313 310 305 300 295 293 293 291 285 277
333 333 333 333 332 332 331 330 330 329 329 328 328 328 329 330 329 330 330 330 331 332 332 332 330 327 325 322 321 320 319 318 316 315 313 310 306 300 294 290 288 287 283 277
334 333 334 333 333 331 330 331 332 331 332 332 332 332 332 332 332 331 332 333 333 334 334 333 330 328 325 322 320 319 318 317 315 314 312 310 306 300 294 288 283 281 278 274
334 334 334 334 332 332 332 333 334 333 335 336 335 334 333 334 333 334 335 335 335 334 333 331 329 326 324 321 319 318 316 315 313 312 310 309 306 301 295 288 281 275 273 269
334 334 334 334 333 333 333 334 335 335 337 337 337 337 334 336 336 335 335 335 334 333 331 329 327 324 322 319 317 315 314 312 311 309 307 305 304 300 295 289 282 274 269 265
334 333 333 334 333 333 334 335 336 337 339 339 340 340 339 338 338 336 334 333 332 330 329 327 325 322 320 317 315 314 312 310 308 306 304 301 298 296 292 287 282 275 268 263
334 333 333 334 334 334 335 337 338 339 340 341 341 340 340 338 337 335 333 331 329 328 326 324 323 321 318 316 314 313 311 309 306 304 301 298 295 291 288 284 280 275 269 263
334 334 333 334 333 335 336 337 338 340 342 342 341 341 339 337 335 333 331 329 328 326 325 323 322 321 319 318 317 315 314 312 309 306 302 297 293 288 284 280 276 273 268 264
334 333 333 334 335 336 337 338 339 341 342 343 342 340 338 335 334 332 331 329 328 327 326 325 324 324 324 324 323 322 321 319 316 312 308 303 297 290 285 279 274 270 267 263
333 333 333 335 336 337 338 338 339 341 343 343 342 340 338 335 334 333 331 330 329 328 328 329 330 332 333 334 333 332 330 328 325 322 317 312 305 297 290 282 276 271 266 262
334 333 334 335 337 338 338 338 338 340 341 341 341 339 337 336 335 333 332 331 331 332 334 337 340 342 342 342 341 340 339 337 335 332 328 324 318 310 301 292 284 276 269 263
333 333 334 335 337 338 338 337 337 338 339 340 339 338 337 336 335 334 334 334 337 340 344 346 347 347 347 347 347 346 344 343 341 339 336 333 329 324 317 309 299 289 279 271
333 332 334 336 338 338 337 336 335 336 338 338 338 338 337 337 336 336 337 340 344 347 349 350 351 352 352 350 349 348 346 344 343 341 339 336 333 329 324 318 312 305 295 285
332 332 334 337 338 338 336 335 334 335 337 338 339 339 338 338 338 340 343 347 350 352 354 355 355 354 353 352 350 349 347 346 344 343 340 338 334 331 326 321 317 312 306 299
332 333 335 337 338 337 336 335 335 336 338 339 339 339 339 340 341 344 349 353 356 358 358 358 357 356 355 353 352 351 349 348 347 345 342 339 335 331 327 322 317 313 308 304
331 333 335 337 338 337 335 335 335 337 338 340 340 340 341 342 345 350 355 359 1 0 360 359 358 357 357 355 354 353 351 350 349 347 344 341 336 332 326 321 316 311 306 302
331 333 336 338 338 336 335 334 336 337 339 340 341 341 343 346 351 357 1 2 2 2 1 0 360 359 358 357 356 355 354 353 351 349 347 343 339 334 328 322 316 310 304 299
331 333 336 337 337 336 335 335 336 338 340 341 342 343 346 351 358 2 3 4 3 3 2 2 1 0 360 360 359 358 357 357 356 355 352 348 343 338 332 326 319 312 304 297
331 333 335 337 337 335 335 336 338 339 341 342 343 346 350 357 3 6 6 5 4 4 4 3 2 2 2 2 1 1 3 3 2 360 357 354 350 345 340 334 327 318 309 300
330 333 335 337 336 335 336 337 339 340 342 343 345 349 354 1 6 6 6 5 5 5 5 5 4 5 5 4 5 7 8 8 7 7 5 3 0 356 352 347 341 334 324 312
330 333 335 336 335 335 336 338 339 341 343 345 347 352 359 5 7 6 5 5 5 5 5 6 6 7 7 7 9 11 12 12 12 13 13 13 12 9 7 3 360 356 349 341
330 333 335 335 334 335 336 339 341 342 344 346 349 355 2 6 7 6 5 4 4 5 6 8 8 9 10 11 12 14 14 15 16 17 19 20 21 21 20 19 18 16 14 10
330 333 334 334 334 335 337 340 342 343 345 347 352 358 4 7 6 5 4 3 4 6 7 9 10 11 12 13 15 16 17 18 19 21 23 25 26 28 30 31 32 33 33 34
330 332 332 333 333 335 338 341 342 343 345 348 353 360 5 5 4 3 2 3 5 7 8 11 12 13 15 16 17 19 20 21 22 24 27 29 31 33 35 38 40 43 46 49
329 331 331 331 333 336 338 341 342 344 345 348 353 0 4 4 2 1 2 4 6 8 9 11 14 15 16 18 19 21 23 24 25 27 29 32 34 36 38 40 43 46 49 53
329 330 330 330 332 335 338 340 342 343 345 347 351 358 1 1 1 2 4 6 7 9 11 13 15 16 17 19 21 23 26 27 28 29 31 33 34 36 38 41 43 46 48 51
328 328 327 328 331 334 337 339 341 343 344 345 349 355 359 360 1 3 5 7 8 10 12 14 16 18 19 21 22 25 27 29 30 31 33 35 36 37 38 40 42 44 47 49
Height
5781 5772 5764 5755 5744 5732 5719 5706 5692 5678 5662 5648 5633 5620 5609 5599 5589 5580 5571 5561 5553 5544 5536 5529 5522 5516 5510 5505 5500 5495 5489 5484 5478 5472 5466 5460 5454 5450 5445 5441 5437 5433 5430 5428
5775 5765 5756 5746 5734 5721 5709 5695 5681 5666 5653 5638 5624 5612 5602 5592 5582 5573 5563 5555 5546 5538 5530 5523 5516 5510 5505 5499 5493 5488 5482 5476 5469 5463 5457 5450 5445 5440 5436 5432 5428 5425 5423 5421
5768 5758 5748 5737 5726 5712 5699 5685 5670 5656 5643 5627 5615 5604 5595 5586 5576 5566 5558 5549 5541 5533 5525 5517 5511 5504 5498 5492 5486 5479 5473 5466 5460 5453 5447 5441 5435 5430 5426 5422 5419 5417 5415 5413
5760 5751 5739 5732 5717 5703 5688 5674 5659 5644 5631 5617 5606 5596 5587 5579 5570 5561 5552 5544 5535 5527 5520 5512 5505 5497 5490 5483 5476 5469 5462 5455 5449 5442 5436 5430 5424 5419 5415 5412 5409 5407 5406 5404
5751 5741 5731 5720 5707 5692 5678 5666 5650 5636 5624 5613 5603 5593 5583 5574 5564 5555 5547 5538 5530 5522 5514 5505 5497 5489 5482 5474 5466 5458 5451 5444 5437 5430 5424 5419 5413 5408 5404 5400 5398 5396 5395 5394
5742 5731 5721 5712 5697 5682 5669 5657 5641 5627 5615 5605 5596 5588 5580 5569 5559 5550 5542 5533 5524 5516 5507 5498 5489 5480 5471 5463 5454 5446 5438 5430 5423 5417 5411 5406 5401 5396 5392 5389 5386 5384 5383 5383
5734 5723 5713 5702 5688 5674 5662 5651 5634 5620 5609 5598 5589 5581 5572 5563 5554 5545 5536 5527 5518 5508 5498 5489 5479 5470 5460 5451 5441 5432 5424 5416 5408 5402 5396 5391 5386 5382 5378 5375 5373 5371 5370 5370
5725 5714 5706 5691 5679 5666 5653 5637 5624 5613 5602 5593 5584 5575 5566 5557 5548 5539 5530 5520 5510 5499 5489 5478 5468 5458 5448 5438 5428 5418 5409 5401 5393 5385 5379 5374 5370 5366 5363 5360 5358 5357 5356 5356
5717 5708 5695 5682 5670 5656 5642 5630 5617 5607 5597 5588 5579 5571 5562 5552 5543 5532 5522 5511 5501 5490 5478 5467 5456 5446 5436 5425 5415 5406 5396 5387 5379 5371 5363 5357 5353 5348 5345 5342 5341 5340 5340 5340
5708 5697 5685 5673 5660 5647 5633 5622 5611 5601 5593 5584 5575 5566 5556 5546 5536 5525 5514 5503 5492 5480 5469 5457 5446 5435 5425 5415 5405 5395 5385 5376 5367 5358 5350 5343 5336 5332 5328 5324 5322 5322 5322 5323
5701 5689 5677 5665 5653 5640 5627 5616 5606 5597 5588 5580 5570 5561 5551 5540 5529 5518 5506 5494 5483 5471 5460 5449 5439 5429 5419 5408 5398 5388 5377 5367 5358 5348 5339 5331 5323 5317 5312 5308 5305 5303 5304 5304
5694 5683 5671 5660 5647 5634 5622 5612 5602 5593 5585 5575 5566 5556 5545 5534 5522 5510 5498 5486 5475 5464 5454 5444 5434 5424 5414 5404 5393 5383 5372 5362 5352 5342 5332 5323 5315 5307 5299 5295 5290 5287 5285 5285
5686 5676 5665 5653 5640 5628 5617 5607 5598 5589 5580 5571 5561 5550 5539 5527 5515 5503 5491 5480 5470 5460 5451 5441 5432 5421 5411 5400 5389 5378 5367 5356 5345 5335 5325 5316 5308 5300 5292 5285 5279 5275 5271 5269
5679 5668 5657 5645 5634 5621 5611 5602 5593 5584 5575 5566 5555 5544 5532 5520 5508 5496 5486 5476 5467 5458 5449 5439 5430 5419 5408 5397 5386 5374 5362 5350 5338 5328 5317 5308 5299 5291 5284 5278 5272 5266 5261 5257
5671 5660 5650 5638 5627 5615 5605 5596 5587 5579 5569 5560 5549 5537 5526 5514 5503 5492 5483 5474 5466 5457 5448 5438 5428 5418 5406 5395 5382 5370 5357 5345 5333 5321 5310 5300 5291 5283 5275 5268 5262 5257 5252 5248
5663 5653 5642 5631 5620 5609 5599 5591 5582 5573 5564 5554 5543 5532 5520 5509 5499 5490 5482 5474 5466 5457 5448 5438 5428 5417 5405 5392 5379 5366 5353 5339 5327 5315 5304 5293 5282 5273 5265 5258 5252 5246 5241 5237
5656 5646 5635 5624 5613 5603 5594 5586 5578 5569 5559 5549 5538 5526 5515 5505 5496 5488 5481 5474 5466 5457 5448 5437 5426 5415 5403 5390 5377 5363 5350 5337 5324 5310 5297 5285 5274 5263 5254 5247 5240 5234 5229 5225
5649 5639 5629 5619 5608 5599 5590 5582 5573 5564 5554 5544 5533 5522 5512 5503 5495 5489 5481 5474 5465 5456 5447 5436 5425 5414 5402 5389 5375 5361 5348 5333 5318 5304 5290 5277 5265 5254 5244 5235 5227 5221 5216 5212
5642 5633 5623 5612 5602 5594 5585 5577 5569 5560 5550 5539 5529 5519 5510 5503 5496 5490 5483 5475 5467 5458 5448 5437 5427 5415 5402 5388 5375 5360 5344 5329 5314 5300 5286 5272 5259 5246 5235 5224 5216 5208 5203 5200
5636 5626 5616 5606 5597 5589 5581 5573 5564 5555 5545 5535 5526 5517 5509 5502 5496 5490 5483 5476 5468 5459 5449 5439 5428 5416 5403 5390 5375 5359 5343 5330 5316 5301 5286 5270 5255 5241 5228 5217 5207 5199 5193 5190
5629 5619 5610 5600 5592 5584 5577 5569 5560 5551 5542 5532 5524 5516 5509 5503 5497 5491 5484 5477 5468 5460 5450 5440 5429 5418 5405 5391 5376 5361 5347 5334 5320 5305 5289 5273 5257 5241 5227 5214 5203 5195 5189 5185
5622 5613 5604 5595 5587 5580 5573 5565 5557 5547 5538 5530 5522 5515 5509 5504 5498 5492 5485 5478 5470 5461 5452 5442 5431 5420 5407 5393 5380 5366 5353 5339 5326 5311 5296 5280 5263 5247 5231 5217 5206 5196 5189 5185
5615 5606 5598 5590 5583 5576 5569 5561 5553 5544 5536 5528 5521 5515 5510 5505 5499 5493 5487 5479 5471 5463 5454 5444 5434 5423 5411 5399 5386 5373 5360 5346 5333 5319 5304 5289 5274 5258 5243 5229 5216 5205 5196 5190
5608 5600 5592 5585 5578 5572 5565 5558 5550 5541 5534 5526 5521 5515 5511 5505 5500 5494 5487 5480 5472 5464 5455 5447 5437 5427 5416 5405 5393 5380 5367 5354 5341 5328 5314 5301 5287 5273 5259 5246 5233 5221 5211 5203
5602 5594 5587 5580 5574 5568 5562 5554 5547 5539 5532 5525 5520 5515 5511 5506 5501 5495 5488 5481 5473 5466 5458 5450 5441 5432 5422 5411 5400 5387 5374 5362 5349 5337 5325 5313 5300 5287 5275 5263 5252 5241 5232 5223
5595 5588 5581 5576 5570 5564 5558 5551 5544 5537 5530 5524 5520 5516 5511 5507 5501 5495 5489 5482 5475 5468 5460 5453 5445 5437 5427 5417 5406 5395 5383 5371 5360 5348 5336 5324 5312 5301 5291 5280 5270 5260 5252 5243
5588 5582 5576 5571 5566 5561 5555 5548 5541 5535 5528 5523 5519 5515 5512 5507 5502 5496 5490 5484 5477 5470 5463 5456 5449 5441 5433 5423 5413 5403 5392 5381 5370 5359 5347 5336 5325 5315 5305 5295 5286 5277 5269 5262